CFG282 EDDS-LEPA

Flight info

Callsign CFG282
Flight time N/A
Altitude 35000
Route ROTWE7H/07 ROTWE Y126 TUBLO N850 NATOR DCT LUTIX DCT BENOT DCT NEMOS DCT GEVEA DCT INCUS DCT BALSI DCT RETNO DCT TUPOX DCT MTG DCT DIVKO DCT VATIR DCT PIVUS DCT BODEQ DCT VERSO L129 LUNIK
Aircraft A320/M-SDE3FGHIRWY/LB1

Departure

Time 2026-05-01 14:59
Airport Stuttgart Airport (EDDS)

Arrival

Time N/A
Airport Palma de Mallorca Airport (LEPA)
Time Latitude Longitude Altitude Speed Heading
2026-05-01 14:39 48.68761 9.19468 1289 ft 0 kts 164°
2026-05-01 14:56 48.68757 9.19470 1287 ft 4 kts 164°
2026-05-01 14:56 48.68707 9.19494 1288 ft 8 kts 148°
2026-05-01 14:57 48.68706 9.19584 1290 ft 11 kts 72°
2026-05-01 14:57 48.68763 9.19880 1289 ft 15 kts 83°
2026-05-01 14:57 48.68701 9.19982 1289 ft 15 kts 161°
2026-05-01 14:58 48.68618 9.20044 1285 ft 13 kts 130°
2026-05-01 14:58 48.68597 9.20142 1285 ft 4 kts 79°
2026-05-01 14:58 48.68600 9.20155 1285 ft 0 kts 71°
2026-05-01 14:58 48.68617 9.20241 1290 ft 33 kts 74°
2026-05-01 14:59 48.68745 9.20911 1289 ft 96 kts 74°
2026-05-01 14:59 48.68977 9.22137 1291 ft 143 kts 74°
2026-05-01 14:59 48.69278 9.23705 1567 ft 155 kts 73°
2026-05-01 14:59 48.69564 9.25250 2270 ft 151 kts 75°
2026-05-01 15:00 48.70198 9.28589 2820 ft 181 kts 75°
2026-05-01 15:00 48.70565 9.30491 2978 ft 200 kts 76°
2026-05-01 15:00 48.70978 9.32637 3112 ft 223 kts 75°
2026-05-01 15:01 48.71226 9.35011 3624 ft 231 kts 100°
2026-05-01 15:01 48.70548 9.37184 4429 ft 231 kts 129°
2026-05-01 15:01 48.69364 9.38835 5218 ft 238 kts 146°
2026-05-01 15:01 48.67849 9.39907 5957 ft 243 kts 164°
2026-05-01 15:02 48.66153 9.40189 6679 ft 248 kts 184°
2026-05-01 15:02 48.65018 9.39900 7143 ft 252 kts 195°
2026-05-01 15:02 48.62962 9.38209 8093 ft 261 kts 220°
2026-05-01 15:02 48.61786 9.35975 8497 ft 281 kts 241°
2026-05-01 15:03 48.61225 9.33133 9172 ft 291 kts 262°
2026-05-01 15:03 48.61366 9.30042 9943 ft 296 kts 278°
2026-05-01 15:03 48.61652 9.26946 10605 ft 299 kts 269°
2026-05-01 15:03 48.61470 9.23816 11274 ft 300 kts 255°
2026-05-01 15:04 48.60938 9.20694 11516 ft 321 kts 253°
2026-05-01 15:04 48.60333 9.17308 11642 ft 343 kts 252°
2026-05-01 15:04 48.59682 9.13721 11772 ft 364 kts 252°
2026-05-01 15:04 48.59004 9.09982 11900 ft 383 kts 252°
2026-05-01 15:05 48.58284 9.05986 12043 ft 400 kts 253°
2026-05-01 15:05 48.57543 9.01865 12404 ft 409 kts 253°
2026-05-01 15:05 48.56803 8.97738 12880 ft 414 kts 253°
2026-05-01 15:05 48.56050 8.93510 13385 ft 418 kts 253°
2026-05-01 15:06 48.55289 8.89251 13916 ft 422 kts 253°
2026-05-01 15:06 48.54513 8.84940 14367 ft 426 kts 253°
2026-05-01 15:06 48.53733 8.80632 14817 ft 430 kts 253°
2026-05-01 15:06 48.52963 8.76440 15300 ft 432 kts 253°
2026-05-01 15:07 48.52158 8.72061 15805 ft 434 kts 253°
2026-05-01 15:07 48.51359 8.67699 16253 ft 437 kts 253°
2026-05-01 15:07 48.50549 8.63262 16774 ft 438 kts 254°
2026-05-01 15:07 48.49740 8.58817 17342 ft 439 kts 253°
2026-05-01 15:08 48.48805 8.54403 17819 ft 441 kts 246°
2026-05-01 15:08 48.47394 8.50270 18263 ft 443 kts 236°
2026-05-01 15:08 48.45543 8.46623 18696 ft 444 kts 226°
2026-05-01 15:08 48.43258 8.43455 19091 ft 445 kts 216°
2026-05-01 15:09 48.40683 8.40938 19461 ft 447 kts 207°
2026-05-01 15:09 48.37830 8.39009 19835 ft 449 kts 199°
2026-05-01 15:09 48.34812 8.37750 20198 ft 451 kts 191°
2026-05-01 15:09 48.31726 8.36773 20544 ft 454 kts 191°
2026-05-01 15:10 48.28617 8.35794 20917 ft 457 kts 191°
2026-05-01 15:10 48.22376 8.33825 21643 ft 463 kts 191°
2026-05-01 15:10 48.19218 8.32720 21983 ft 466 kts 195°
2026-05-01 15:11 48.16200 8.31013 22325 ft 470 kts 204°
2026-05-01 15:11 48.10552 8.25912 22999 ft 476 kts 212°
2026-05-01 15:11 48.07799 8.23246 23349 ft 478 kts 212°
2026-05-01 15:12 48.04993 8.20536 23722 ft 481 kts 212°
2026-05-01 15:12 47.99331 8.15088 24298 ft 485 kts 212°
2026-05-01 15:12 47.96481 8.12350 24621 ft 486 kts 212°
2026-05-01 15:13 47.88006 8.04240 25858 ft 481 kts 212°
2026-05-01 15:14 47.82401 7.98898 26644 ft 478 kts 212°
2026-05-01 15:14 47.79595 7.96224 27051 ft 478 kts 212°
2026-05-01 15:14 47.74017 7.90926 27829 ft 476 kts 212°
2026-05-01 15:15 47.68417 7.85632 28529 ft 476 kts 212°
2026-05-01 15:15 47.62849 7.80360 29333 ft 474 kts 213°
2026-05-01 15:16 47.57311 7.75131 30129 ft 471 kts 212°
2026-05-01 15:16 47.51772 7.69933 30781 ft 470 kts 212°
2026-05-01 15:17 47.46288 7.64784 31532 ft 466 kts 213°
2026-05-01 15:18 47.38124 7.57135 32652 ft 460 kts 213°
2026-05-01 15:18 47.35445 7.54632 33026 ft 458 kts 213°
2026-05-01 15:19 47.27413 7.47155 34148 ft 453 kts 213°
2026-05-01 15:19 47.22086 7.42219 34860 ft 448 kts 212°
2026-05-01 15:19 47.19448 7.39777 35132 ft 447 kts 213°
2026-05-01 15:20 47.14754 7.33831 35248 ft 446 kts 231°
2026-05-01 15:20 47.12841 7.30288 35248 ft 446 kts 232°
2026-05-01 15:21 47.08992 7.23165 35253 ft 446 kts 232°
2026-05-01 15:21 47.05099 7.16045 35274 ft 446 kts 231°
2026-05-01 15:22 46.99938 7.06605 35267 ft 446 kts 231°
2026-05-01 15:22 46.95405 6.98333 35272 ft 446 kts 231°
2026-05-01 15:23 46.92160 6.92440 35283 ft 446 kts 229°
2026-05-01 15:23 46.87579 6.86323 35284 ft 445 kts 219°
2026-05-01 15:24 46.82794 6.80638 35285 ft 445 kts 219°
2026-05-01 15:24 46.77981 6.74913 35280 ft 445 kts 219°
2026-05-01 15:25 46.73205 6.69239 35264 ft 445 kts 220°
2026-05-01 15:25 46.68384 6.63531 35260 ft 445 kts 220°
2026-05-01 15:26 46.63583 6.57871 35256 ft 446 kts 220°
2026-05-01 15:26 46.58749 6.52171 35253 ft 446 kts 220°
2026-05-01 15:27 46.53944 6.46515 35254 ft 446 kts 220°
2026-05-01 15:28 46.46718 6.38049 35265 ft 445 kts 220°
2026-05-01 15:28 46.41877 6.32388 35264 ft 445 kts 220°
2026-05-01 15:29 46.34672 6.24007 35246 ft 445 kts 221°
2026-05-01 15:30 46.25472 6.14338 35242 ft 449 kts 206°
2026-05-01 15:31 46.12179 6.10307 35238 ft 455 kts 191°
2026-05-01 15:31 46.05950 6.08908 35238 ft 455 kts 191°
2026-05-01 15:32 45.93419 6.06127 35232 ft 456 kts 191°
2026-05-01 15:34 45.74601 6.01982 35231 ft 457 kts 191°